User: anonymous   Login
Location: Cran-Gévrier
(45.9039°N, 6.1012°E)
Time: 18:40:48
(UTC+00:00)
Language:

Cosmos 1400 Rocket - Orbit

View from above orbital plane
View from above orbital plane
View from above satellite
View from above satellite

Ground track
Ground track

The orbit data is extracted from the following two-line orbital elements,

1 13403U 82079B   23150.16707693  .00002772  00000-0  16521-3 0  9993
2 13403  81.1450 296.8117 0030702 321.9231  37.9824 15.10474053224099
Epoch (UTC): 30 May 2023 04:00:35
Eccentricity: 0.0030702
inclination: 81.1450°
perigee height: 513 km
apogee height: 556 km
right ascension of ascending node: 296.8117°
argument of perigee: 321.9231°
revolutions per day: 15.10474053
mean anomaly at epoch: 37.9824°
orbit number at epoch: 22409

The dashed part of the orbit path shows where the satellite is in the earth's shadow,  

DLR